Location: Chełm
(51.1339°N, 23.4725°E)
Time: 22:44:06
(UTC+01:00)

ISS - Pass Details

Date: 27 January 2019
Orbit: 403 x 411 km, 51.6° (Epoch: 20 February)

Event Time Altitude Azimuth Distance (km) Brightness Sun altitude
Rises 16:47:01 0° 217° (SW) 2,323 1.2 -6.5°
Reaches altitude 10° 16:49:18 10° 204° (SSW) 1,468 -0.3 -6.8°
Maximum altitude 16:52:05 25° 147° (SSE) 866 -2.3 -7.2°
Drops below altitude 10° 16:54:52 10° 89° (E) 1,480 -1.6 -7.6°
Enters shadow 16:55:02 - 88° (E) 1,538 -1.5 -7.6°
